Andalusia, AL

10:43 AM CDT on September 19, 2017 (GMT -0500)
Andalusia

Weather History for K79J - November, 2013

Change the Weather History Date:

Wednesday, November 13, 2013

  Actual Average (KCEW) Record (KCEW)
Temperature  
Mean Temperature 44 °F -  
Max Temperature 55 °F 68 °F 83 °F (1993)
Min Temperature 34 °F 41 °F 28 °F (2013)
Degree Days  
Heating Degree Days 20    
Moisture  
Dew Point 19 °F    
Average Humidity 44    
Maximum Humidity 72    
Minimum Humidity 22    
Precipitation  
Precipitation 0.00 in - - ()
Sea Level Pressure  
Sea Level Pressure 30.46 in    
Wind  
Wind Speed 8 mph (ENE)    
Max Wind Speed 13 mph    
Max Gust Speed 21 mph    
Averages and records for this station are not official NWS values.
T = Trace of Precipitation, MM = Missing Value Source: NWS Daily Summary

Daily Weather History Graph

Daily Weather History Graph

Search for Another Location

Airport or City:

Trip Planner

Search our weather history database for the weather conditions in past years. The results will help you decide how hot, cold, wet, or windy it might be!

Date:

Astronomy

Nov. 13, 2013 Rise Set
Actual Time 6:11 AM CST 4:47 PM CST
Civil Twilight 5:45 AM CST 5:13 PM CST
Nautical Twilight 5:16 AM CST 5:42 PM CST
Astronomical Twilight 4:47 AM CST 6:11 PM CST
Moon 2:22 PM CST (11/13) 2:18 AM CST (11/13)
Length of Visible Light 11h 27m
Length of Day
10h 36m
Waxing Gibbous, 85% of the Moon is Illuminated
Nov 13
Waxing Gibbous
Nov 17
Full
Nov 25
Last Quarter
Dec 2
New
Dec 9
First Quarter

Hourly Weather History & Observations

Time (CST) Temp. Windchill Dew Point Humidity Pressure Visibility Wind Dir Wind Speed Gust Speed Precip Events Conditions
12:56 AM 37.9 °F 32.7 °F 18.0 °F 45% 30.42 in - NE 6.9 mph - N/A   Clear
1:56 AM 37.0 °F 31.0 °F 18.0 °F 46% 30.41 in - NE 8.1 mph - N/A   Clear
2:56 AM 36.0 °F 29.0 °F 17.1 °F 46% 30.43 in - NE 9.2 mph 16.1 mph N/A   Clear
3:56 AM 35.1 °F 27.9 °F 17.1 °F 48% 30.44 in - NE 9.2 mph 17.3 mph N/A   Clear
4:56 AM 34.0 °F 26.0 °F 17.1 °F 50% 30.46 in - NE 10.4 mph 17.3 mph N/A   Clear
5:56 AM 34.0 °F 27.2 °F 17.1 °F 50% 30.48 in - NE 8.1 mph - N/A   Clear
6:56 AM 34.0 °F 26.6 °F 17.1 °F 50% 30.50 in - NE 9.2 mph - N/A   Clear
7:56 AM 37.9 °F 31.5 °F 17.1 °F 43% 30.51 in - East 9.2 mph 20.7 mph N/A   Clear
8:56 AM 42.1 °F 36.1 °F 17.1 °F 37% 30.52 in - East 10.4 mph 20.7 mph N/A   Clear
9:56 AM 46.0 °F 41.0 °F 18.0 °F 33% 30.52 in - East 10.4 mph 18.4 mph N/A   Clear
10:56 AM 50.0 °F - 16.0 °F 26% 30.51 in - ENE 10.4 mph 20.7 mph N/A   Clear
11:56 AM 52.0 °F - 15.1 °F 23% 30.48 in - NE 12.7 mph 17.3 mph N/A   Clear
12:56 PM 54.0 °F - 16.0 °F 22% 30.45 in - East 12.7 mph 19.6 mph N/A   Clear
1:56 PM 54.0 °F - 15.1 °F 22% 30.44 in - ENE 10.4 mph - N/A   Clear
2:56 PM 55.0 °F - 16.0 °F 22% 30.43 in - ENE 11.5 mph - N/A   Clear
3:56 PM 54.0 °F - 17.1 °F 23% 30.43 in - East 9.2 mph - N/A   Clear
4:56 PM 48.9 °F - 19.9 °F 32% 30.43 in - ENE 4.6 mph - N/A   Clear
5:56 PM 44.1 °F 41.5 °F 24.1 °F 45% 30.44 in - ENE 4.6 mph - N/A   Clear
6:56 PM 44.1 °F 42.5 °F 21.0 °F 40% 30.44 in - East 3.5 mph - N/A   Clear
7:56 PM 37.9 °F - 26.1 °F 62% 30.46 in - Calm Calm - N/A   Clear
8:56 PM 36.0 °F - 27.0 °F 70% 30.47 in - Calm Calm - N/A   Clear
9:56 PM 35.1 °F - 27.0 °F 72% 30.46 in - Calm Calm - N/A   Clear
10:56 PM 34.0 °F - 25.0 °F 70% 30.45 in - Calm Calm - N/A   Clear
11:56 PM 34.0 °F - 24.1 °F 67% 30.44 in - Calm Calm - N/A   Clear